Regional Weather Roundup
Issued by NWS

Home | Current Version | Previous Version | Graphics & Text | Print | Product List | Glossary On
Versions: 1 2 3 4 5 6 7 8 9 10 11 12 13 14 15 16 17 18 19 20 21 22 23 24 25 26 27 28 29 30 31 32 33 34 35 36 37 38 39 40 41 42 43 44 45 46 47 48 49 50
000
ASUS45 KTFX 250404
RWRMT
MONTANA HOURLY WEATHER ROUNDUP
NATIONAL WEATHER SERVICE GREAT FALLS MT
1004 PM MDT THU APR 24 2014

NOTE: "FAIR" INDICATES FEW OR NO CLOUDS BELOW 12000 FEET WITH NO
SIGNIFICANT WEATHER AND/OR OBSTRUCTIONS TO VISIBILITY.

* THESE STATIONS ARE NOT UNDER NWS QUALITY CONTROL. THEY DO NOT
   REPORT WEATHER SUCH AS PRECIPITATION OR FOG.

MTZ001>007-043-250500-
WEST OF THE DIVIDE
CITY           SKY/WX    TMP DP  RH WIND       PRES   REMARKS
KALISPELL      LGT RAIN  45  39  80 SW5       29.82R
MISSOULA       CLOUDY    45  39  80 S7        29.87F
BUTTE          LGT RAIN  36  34  92 NE8       29.88R WCI  30
MULLAN PASS    FOG       30  30 100 VRB6      29.81S VSB M1/4 WCI  24
* ESSEX        N/A       38  36  93 N/A        N/A
* LINCOLN      N/A       41  34  76 SW5G13     N/A
* LOOKOUT PASS N/A       36  36 100 SE1G6      N/A
* POLSON       N/A       41  38  89 SE2        N/A
* SEELEY LAKE  N/A       41  38  89 NE2G7      N/A
* THOMP F APT  MOCLDY    38  35  89 NE1G7      N/A
* YAAK HILL    N/A       43  40  89 N1         N/A
$$

MTZ008-052>055-250500-
SOUTHWEST MONTANA
CITY           SKY/WX    TMP DP  RH WIND       PRES   REMARKS
BOZEMAN        FAIR      37  32  82 S10       29.84S WCI  30
DILLON         MOCLDY    43  36  76 S12       29.84R
W YELLOWSTONE  N/A       33  33 100 SW2G7      N/A
* THREE FORKS  PTCLDY    41  41 100 N/A        N/A
* BOULDER HILL N/A       41  25  53 SW2        N/A
* MONIDA PASS  N/A       37  29  73 W2         N/A
* RAYNOLDS PAS N/A       33  16  50 S16        N/A   WCI  23
* WHITEHALL    N/A       47  31  54 W8G14      N/A
* WISE RIVER   N/A       34  32  92 SW3G20     N/A
$$

MTZ009>010-012-014-046-048-049-054-250500-
EAST SLOPES AND CENTRAL MONTANA
CITY           SKY/WX    TMP DP  RH WIND       PRES   REMARKS
CUT BANK       CLOUDY    45  32  60 W18       29.73R
GREAT FALLS    CLOUDY    45  32  60 SW15      29.77R
HELENA         MOCLDY    46  36  68 SW5       29.83R
MALMSTROM AFB  MOCLDY    46  30  54 S14       29.74R
* CONRAD       CLOUDY    46  30  54 N/A        N/A
* DEARBORN     N/A       51  30  45 S18G29     N/A
* EAST GLACIER N/A       37  32  82 W19G25     N/A   WCI  27
* MONARCH      N/A       42  19  40 SW16G25    N/A
* PENDROY      N/A       39  27  62 N2         N/A
* ROGERS PASS  N/A       38  31  76 SE11G16    N/A   WCI  31
* SAINT MARY   N/A       41  30  65 S11G22     N/A
* SWEET GRASS  N/A       45  30  56 SW15       N/A
$$

MTZ011-013-016-021-035-040-045-047-050-051-250500-
NORTH CENTRAL MONTANA
CITY           SKY/WX    TMP DP  RH WIND       PRES   REMARKS
HAVRE          CLOUDY    48  37  66 SW10      29.71R
LEWISTOWN      PTCLDY    39  36  89 SW13      29.78R WCI  31
* CHESTER      N/A       47  30  52 W6         N/A
* DENTON       N/A       40  30  68 SW4        N/A
* GEYSER       N/A       40  28  62 W7         N/A   WCI  35
* JUDITH GAP   N/A       42  32  68 SW2        N/A
* LOMA         N/A       49  32  52 S2         N/A
$$

MTZ017>020-022>027-061-062-250500-
NORTHEAST MONTANA
CITY           SKY/WX    TMP DP  RH WIND       PRES   REMARKS
GLASGOW        CLOUDY    54  34  47 W9        29.72R
GLENDIVE       CLOUDY    48  30  50 W7        29.76S
JORDAN         CLOUDY    46  34  63 CALM      29.74S
SIDNEY         MOCLDY    45  23  42 S6        29.74S
WOLF POINT     CLOUDY    52  28  40 W7        29.72R
* BEAVER HILL  N/A       52  29  41 SW9        N/A
* CIRCLE       N/A       52  33  48 N/A        N/A
* LINDSAY DVD  N/A       49  31  50 W8         N/A
* NAVAJO       N/A       38  26  62 SW4        N/A
* SACO         N/A       48  34  59 SW5        N/A
$$

MTZ028>042-056>058-250500-
SOUTHCENTRAL AND SOUTHEAST MONTANA
CITY           SKY/WX    TMP DP  RH WIND       PRES   REMARKS
BAKER          CLOUDY    50  32  50 NW6       29.79R
BILLINGS       MOCLDY    48  36  63 NW17      29.80S
LIVINGSTON     PTCLDY    39 N/A N/A NW13      29.83F WCI  31
MILES CITY     PTCLDY    45  34  65 W3        29.76S
* LAUREL APT   PTCLDY    48  28  46 W14        N/A
* ROUNDUP APT  PTCLDY    50  32  50 N/A        N/A
* HYSHAM       N/A       49  29  46 SW2        N/A
* REED POINT   N/A       47  37  68 W6         N/A
* ROSCOE HILL  N/A       45  24  44 W4G9       N/A
$$

REGIONAL REPORTS...DAKOTAS
CITY           SKY/WX    TMP DP  RH WIND       PRES   REMARKS
WILLISTON      PTCLDY    37  28  70 CALM      29.71S
DICKINSON      MOCLDY    41  25  53 CALM      29.74R
CROSBY         N/A       36  32  85 CALM       N/A
TIOGA          MOCLDY    36  28  73 S7        29.74F WCI  30
WATFORD CITY   CLEAR     32  25  75 CALM      29.71S
BISMARCK       CLEAR     36  28  73 S3        29.76R
GRAND FORKS    FOG       39  39 100 CALM      29.70F VSB 2 1/2
FARGO          FOG       41  39  93 N8        29.70S VSB 2 1/2
BUFFALO SD     MOCLDY    50  27  41 NW14      29.72R
RAPID CITY     MOCLDY    46  28  50 N3        29.80R
$$

REGIONAL REPORTS...WYOMING/IDAHO/WASHINGTON
CITY           SKY/WX    TMP DP  RH WIND       PRES   REMARKS
GILLETTE       MOCLDY    34  27  76 SW3       29.82R
SHERIDAN       PTCLDY    45  32  60 W12       29.83R
CODY           PTCLDY    48  28  46 SW7       29.87R
YELLOWSTONE LA CLOUDY    30  30 100 CALM      29.97R
SALMON         MOCLDY    43  34  71 N7        29.88R
MULLAN PASS    FOG       30  30 100 VRB6      29.81S VSB M1/4 WCI  24
SPOKANE        MOCLDY    50  32  50 SW12      29.78R

$$




USA.gov is the U.S. government's official web portal to all federal, state and local government web resources and services.